This is the latest recevied weather packets stored in our database for station/object IR3ZXT. If no packets are shown the sender has not sent any weather packets the latest 10 day(s).
| Time | Temp. | Humidity | Pressure | Rain* | Wind** | Luminosity | Snow |
|---|---|---|---|---|---|---|---|
| 1787727919 | 18.89° C | 67% | 868.4 hPa | 0 mm | - | - | - |
| 1787727619 | 18.89° C | 67% | 868.4 hPa | 0 mm | - | - | - |
| 1787727319 | 18.89° C | 67% | 868.3 hPa | 0 mm | - | - | - |
| 1787727019 | 18.89° C | 67% | 868.3 hPa | 0 mm | - | - | - |
| 1787726719 | 18.33° C | 67% | 868.4 hPa | 0 mm | - | - | - |
| 1787726419 | 17.78° C | 69% | 868.4 hPa | 0 mm | - | - | - |
| 1787726119 | 17.22° C | 70% | 868.3 hPa | 0 mm | - | - | - |
| 1787725819 | 16.11° C | 71% | 868.2 hPa | 0 mm | - | - | - |
| 1787725519 | 15.56° C | 70% | 868.2 hPa | 0 mm | - | - | - |
| 1787725219 | 15° C | 74% | 868.3 hPa | 0 mm | - | - | - |
| 1787724919 | 14.44° C | 74% | 868.3 hPa | 0 mm | - | - | - |
| 1787724663 | 14.44° C | 74% | 868.3 hPa | 0 mm | - | - | - |
| 1787724619 | 14.44° C | 74% | 868.3 hPa | 0 mm | - | - | - |
| 1787724319 | 13.89° C | 74% | 868.3 hPa | 0 mm | - | - | - |
| 1787724019 | 13.89° C | 74% | 868.2 hPa | 0 mm | - | - | - |
| 1787723719 | 13.33° C | 74% | 868.1 hPa | 0 mm | - | - | - |
| 1787723119 | 12.78° C | 75% | 868.1 hPa | 0 mm | - | - | - |
| 1787722860 | 12.78° C | 75% | 868.1 hPa | 0 mm | - | - | - |
| 1787722819 | 12.78° C | 75% | 868.1 hPa | 0 mm | - | - | - |
| 1787722519 | 12.78° C | 75% | 868 hPa | 0 mm | - | - | - |
| 1787722219 | 12.78° C | 75% | 868.1 hPa | 0 mm | - | - | - |
| 1787721919 | 12.78° C | 76% | 867.9 hPa | 0 mm | - | - | - |
| 1787721619 | 12.22° C | 76% | 868 hPa | 0 mm | - | - | - |
| 1787721319 | 12.22° C | 75% | 868 hPa | 0 mm | - | - | - |
| 1787721019 | 12.22° C | 75% | 868 hPa | 0 mm | - | - | - |
* Rain latest hour (hover to see other rain measurements)
** Current wind speed in m/s (hover to see current wind gust speed)